Change the Weather History Date:

Monday, May 19, 2014

  Actual Average Record
Temperature  
Mean Temperature 70 °F 75 °F  
Max Temperature 83 °F 85 °F 98 °F (1962)
Min Temperature 57 °F 65 °F 48 °F (2002)
Cooling Degree Days 5 10  
Month to date cooling degree days 107 150  
Year to date cooling degree days 222 309  
Growing Degree Days 20 (Base 50)    
Moisture  
Dew Point 59 °F    
Average Humidity 71    
Maximum Humidity 100    
Minimum Humidity 42    
Precipitation  
Precipitation 0.00 in 0.17 in 4.71 in (1932)
Month to date precipitation 4.76 3.07  
Year to date precipitation 36.47 24.77  
Sea Level Pressure  
Sea Level Pressure 30.17 in    
Wind  
Wind Speed 4 mph (South)    
Max Wind Speed 14 mph    
Max Gust Speed 18 mph    
Visibility 10 miles    
Events      
T = Trace of Precipitation, MM = Missing Value Source: NWS Daily Summary

Daily Weather History Graph

Daily Weather History Graph

Search for Another Location

Airport or City:

Trip Planner

Search our weather history database for the weather conditions in past years. The results will help you decide how hot, cold, wet, or windy it might be!

Date:

Astronomy

May. 19, 2014 Rise Set
Actual Time 5:55 AM CDT 7:43 PM CDT
Civil Twilight 5:29 AM CDT 8:10 PM CDT
Nautical Twilight 4:57 AM CDT 8:42 PM CDT
Astronomical Twilight 4:23 AM CDT 9:16 PM CDT
Moon No Moon Rise 10:46 AM CDT (5/19)
Length of Visible Light 14h 40m
Length of Day
13h 47m
Waning Gibbous, 71% of the Moon is Illuminated
May 19
Waning Gibbous
May 21
Last Quarter
May 28
New
Jun 5
First Quarter
Jun 12
Full

Hourly Weather History & Observations

Time (CDT) Temp. Heat Index Dew Point Humidity Pressure Visibility Wind Dir Wind Speed Gust Speed Precip Events Conditions
12:56 AM 62.6 °F - 60.8 °F 94% 30.16 in 10.0 mi Calm Calm - N/A   Clear
1:56 AM 63.0 °F - 61.0 °F 93% 30.14 in 10.0 mi Calm Calm - N/A   Clear
2:56 AM 60.1 °F - 60.1 °F 100% 30.14 in 10.0 mi Calm Calm - N/A   Clear
3:56 AM 57.9 °F - 57.9 °F 100% 30.15 in 10.0 mi Calm Calm - N/A   Clear
4:56 AM 59.0 °F - 59.0 °F 100% 30.15 in 10.0 mi Calm Calm - N/A   Clear
5:56 AM 57.0 °F - 57.0 °F 100% 30.17 in 7.0 mi Calm Calm - N/A   Partly Cloudy
6:56 AM 61.0 °F - 61.0 °F 100% 30.17 in 7.0 mi Calm Calm - N/A   Partly Cloudy
9:56 AM 75.9 °F - 64.0 °F 67% 30.20 in 10.0 mi North 4.6 mph - N/A   Mostly Cloudy
10:56 AM 78.1 °F - 61.0 °F 56% 30.20 in 10.0 mi Variable 3.5 mph - N/A   Mostly Cloudy
11:56 AM 80.1 °F 80.7 °F 59.0 °F 48% 30.19 in 10.0 mi Variable 5.8 mph - N/A   Mostly Cloudy
12:56 PM 82.0 °F 82.0 °F 57.9 °F 44% 30.19 in 10.0 mi South 5.8 mph - N/A   Mostly Cloudy
1:56 PM 82.0 °F 82.7 °F 61.0 °F 49% 30.18 in 10.0 mi South 5.8 mph - N/A   Mostly Cloudy
2:56 PM 82.9 °F 82.4 °F 57.0 °F 41% 30.17 in 10.0 mi SSE 12.7 mph 17.3 mph N/A   Scattered Clouds
3:56 PM 82.0 °F 81.7 °F 57.0 °F 42% 30.15 in 10.0 mi Variable 6.9 mph - N/A   Partly Cloudy
4:56 PM 81.0 °F 81.0 °F 57.0 °F 44% 30.16 in 10.0 mi South 8.1 mph - N/A   Scattered Clouds
5:56 PM 80.1 °F 80.2 °F 55.9 °F 43% 30.15 in 10.0 mi SSE 6.9 mph - N/A   Partly Cloudy
6:56 PM 77.0 °F - 55.9 °F 48% 30.15 in 10.0 mi South 8.1 mph - N/A   Mostly Cloudy
7:56 PM 72.0 °F - 57.9 °F 61% 30.16 in 10.0 mi SSW 4.6 mph - N/A   Mostly Cloudy
8:56 PM 68.0 °F - 59.0 °F 73% 30.17 in 10.0 mi South 4.6 mph - N/A   Scattered Clouds
9:56 PM 66.0 °F - 60.1 °F 81% 30.17 in 10.0 mi Calm Calm - N/A   Scattered Clouds
10:56 PM 61.0 °F - 61.0 °F 100% 30.18 in 10.0 mi Calm Calm - N/A   Partly Cloudy
11:56 PM 64.0 °F - 63.0 °F 96% 30.17 in 10.0 mi South 4.6 mph - N/A   Clear